Satellite: INMARSAT 3-F1
Catalog number: 23839
Epoch time:      103054.72527578
Element set:     874 
Inclination:        0.0449 deg
RA of node:       343.3622 deg
Eccentricity:    0.0009344
Arg of perigee:   272.9017 deg
Mean anomaly:     222.0132 deg
Mean motion:    1.00274952 rev/day
Decay rate:    5.0000E-008 rev/day^2
Epoch rev:            2526
Checksum:              378

Satellite: ASTRA 1F
Catalog number: 23842
Epoch time:      103049.00000000
Element set:     560 
Inclination:        0.0122 deg
RA of node:       319.8851 deg
Eccentricity:    0.0002995
Arg of perigee:    65.1991 deg
Mean anomaly:     141.6521 deg
Mean motion:    1.00273184 rev/day
Decay rate:    1.1600E-006 rev/day^2
Epoch rev:            2511
Checksum:              221

Satellite: JAS 2
Catalog number: 24278
Epoch time:      103054.94052720
Element set:     567 
Inclination:       98.5378 deg
RA of node:       205.4321 deg
Eccentricity:    0.0350254
Arg of perigee:   202.4746 deg
Mean anomaly:     156.0719 deg
Mean motion:   13.52872831 rev/day
Decay rate:   -2.9999E-008 rev/day^2
Epoch rev:           32203
Checksum:              319

Satellite: UNCatalog number: 24305
Epoch time:      103054.95189097
Element set:     681 
Inclination:       82.9300 deg
RA of node:       258.8005 deg
Eccentricity:    0.0029537
Arg of perigee:   185.5426 deg
Mean anomaly:     174.5403 deg
Mean motion:   13.73452276 rev/day
Decay rate:    2.0499E-006 rev/day^2
Epoch rev:           32422
Checksum:              311

Satellite: INMARSAT 3-F2
Catalog number: 24307
Epoch time:      103048.16355904
Element set:     82 
Inclination:        0.0603 deg
RA of node:        13.0422 deg
Eccentricity:    0.0005875
Arg of perigee:   324.1064 deg
Mean anomaly:     212.9403 deg
Mean motion:    1.00272441Decay rate:   -1.2599E-006 rev/day^2
Epoch rev:            2360
Checksum:              241

Satellite: HOT BIRD 2
Catalog number: 24665
Epoch time:      103051.87295777
Element set:     343 
Inclination:        0.0602 deg
RA of node:       278.0569 deg
Eccentricity:    0.0008075
Arg of perigee:    45.8891 deg
Mean anomaly:     153.6489 deg
Mean motion:    1.00273748 rev/day
Decay rate:    8.1000E-007 rev/day^2
Epoch rev:            2328
Checksum:              410

Satellite: INMARSAT 3-F3
Catalog number: 24674
Epoch time:      103054.39126738
Element set:     993 
Inclination:        0.0709 deg
RA of node:       Eccentricity:    0.0003721
Arg of perigee:     7.9924 deg
Mean anomaly:     156.9423 deg
Mean motion:    1.00272144 rev/day
Decay rate:    3.0999E-007 rev/day^2
Epoch rev:            2263
Checksum:              299

Satellite: GOES 10
Catalog number: 24786
Epoch time:      103055.38943647
Element set:     559 
Inclination:        0.1463 deg
RA of node:       104.9448 deg
Eccentricity:    0.0002020
Arg of perigee:   250.3621 deg
Mean anomaly:     163.5768 deg
Mean motion:    1.00261449 rev/day
Decay rate:    7.7999E-007 rev/day^2
Epoch rev:            2139
Checksum:              306

Satellite: INMARSAT 3-F4
Catalog number: 24819
Epoch time:      103054.31435635
Element set:     888 
Inclination:        0.0432 deg
RA of node:       294.5288 deg
Eccentricity:    0.0003935
Arg of perigee:    36.0427 deg
Mean anomaly:     241.3306 deg
Mean motion:    1.00267632 rev/day
Decay rate:   -2.9499E-006 rev/day^2
Epoch rev:            2105
Checksum:              290

Satellite: FENGYUN 2A
Catalog number: 24834
Epoch time:      103053.89585481
Element set:     967 
Inclination:        2.5825 deg
RA of node:        88.4062 deg
Eccentricity:    0.0001228
Arg of perigee:   209.7638 deg
Mean anomaly:     262.5241 deg
Mean motion:    1.00280697 rev/day
Decay rate:   -2.0299E-006 rev/day^2
Epoch rev:    Checksum:              313

Satellite: HOT BIRD 3
Catalog number: 24931
Epoch time:      103051.86334527
Element set:     427 
Inclination:        0.0478 deg
RA of node:       160.3357 deg
Eccentricity:    0.0010425
Arg of perigee:   174.4081 deg
Mean anomaly:     139.3861 deg
Mean motion:    1.00275316 rev/day
Decay rate:    8.1000E-007 rev/day^2
Epoch rev:            2010
Checksum:              246

Satellite: METEOSAT 7
Catalog number: 24932
Epoch time:      103054.00426097
Element set:     254 
Inclination:        0.2196 deg
RA of node:        64.9262 deg
Eccentricity:    0.0001178
Arg of perigee:   261.5542 Mean anomaly:     188.1794 deg
Mean motion:    1.00280550 rev/day
Decay rate:   -5.9999E-008 rev/day^2
Epoch rev:            2006
Checksum:              293

Satellite: ASTRA 1G
Catalog number: 25071
Epoch time:      103049.00000000
Element set:     392 
Inclination:        0.0122 deg
RA of node:       319.8851 deg
Eccentricity:    0.0002995
Arg of perigee:    65.1991 deg
Mean anomaly:     141.6317 deg
Mean motion:    1.00273184 rev/day
Decay rate:    1.1600E-006 rev/day^2
Epoch rev:            1913
Checksum:              228

Satellite: INMARSAT 3-F5
Catalog number: 25153
Epoch time:      103054.80580781
Element set:     Inclination:        0.4666 deg
RA of node:       353.2016 deg
Eccentricity:    0.0002984
Arg of perigee:   342.7048 deg
Mean anomaly:     132.4452 deg
Mean motion:    1.00275433 rev/day
Decay rate:    1.3100E-006 rev/day^2
Epoch rev:            1855
Checksum:              273

Satellite: HOT BIRD 4
Catalog number: 25237
Epoch time:      103051.87002466
Element set:     328 
Inclination:        0.0941 deg
RA of node:       307.5522 deg
Eccentricity:    0.0007523
Arg of perigee:   323.6559 deg
Mean anomaly:     205.4369 deg
Mean motion:    1.00273901 rev/day
Decay rate:    8.1000E-007 rev/day^2
Epoch rev:            1856
Checksum:              370

Satellite: NOCatalog number: 25338
Epoch time:      103054.93744321
Element set:     17 
Inclination:       98.5487 deg
RA of node:        76.9415 deg
Eccentricity:    0.0009795
Arg of perigee:   304.7773 deg
Mean anomaly:      55.2484 deg
Mean motion:   14.24247805 rev/day
Decay rate:    1.9100E-006 rev/day^2
Epoch rev:           24856
Checksum:              331

Satellite: RESURS O1-N4
Catalog number: 25394
Epoch time:      103054.97647580
Element set:     477 
Inclination:       98.6302 deg
RA of node:       132.8043 deg
Eccentricity:    0.0002457
Arg of perigee:    92.0569 deg
Mean anomaly:     268.0891 deg
Mean motion:   14.2388Decay rate:    1.2699E-006 rev/day^2
Epoch rev:           24030
Checksum:              319

Satellite: TMSAT
Catalog number: 25396
Epoch time:      103054.94804202
Element set:     857 
Inclination:       98.6263 deg
RA of node:       131.9531 deg
Eccentricity:    0.0004395
Arg of perigee:   119.8694 deg
Mean anomaly:     240.2926 deg
Mean motion:   14.23511878 rev/day
Decay rate:   -4.3000E-007 rev/day^2
Epoch rev:           24029
Checksum:              309

Satellite: TECHSAT 1B
Catalog number: 25397
Epoch time:      103054.97194709
Element set:     139 
Inclination:       98.6213 deg
RA of node:       130.8475 degEccentricity:    0.0002245
Arg of perigee:   120.8401 deg
Mean anomaly:     239.2997 deg
Mean motion:   14.22961392 rev/day
Decay rate:    7.0999E-007 rev/day^2
Epoch rev:           24026
Checksum:              328

Satellite: ASTRA 2A
Catalog number: 25462
Epoch time:      103051.31926416
Element set:     533 
Inclination:        0.0870 deg
RA of node:       297.6948 deg
Eccentricity:    0.0007001
Arg of perigee:   278.8390 deg
Mean anomaly:      76.4419 deg
Mean motion:    1.00266022 rev/day
Decay rate:    9.9999E-009 rev/day^2
Epoch rev:            1645
Checksum:              307

Satellite: EUTELSAT W2
Catalog number: Epoch time:      103051.90482279
Element set:     580 
Inclination:        0.0121 deg
RA of node:       121.9212 deg
Eccentricity:    0.0006367
Arg of perigee:   232.4570 deg
Mean anomaly:     137.6942 deg
Mean motion:    1.00272847 rev/day
Decay rate:    9.6999E-007 rev/day^2
Epoch rev:            1607
Checksum:              288

Satellite: HOT BIRD 5
Catalog number: 25495
Epoch time:      103042.93716436
Element set:     500 
Inclination:        0.0310 deg
RA of node:       255.9940 deg
Eccentricity:    0.0003377
Arg of perigee:    65.4663 deg
Mean anomaly:     190.5501 deg
Mean motion:    1.00272693 rev/day
Decay rate:    1.6499E-006 rev/day^2
Epoch rev:           Checksum:              286

Satellite: SEDSAT 1
Catalog number: 25509
Epoch time:      103054.61703593
Element set:     787 
Inclination:       31.4315 deg
RA of node:       124.6569 deg
Eccentricity:    0.0357578
Arg of perigee:   346.8602 deg
Mean anomaly:      12.2934 deg
Mean motion:   14.27442984 rev/day
Decay rate:    7.5600E-006 rev/day^2
Epoch rev:           22603
Checksum:              315

Satellite: PAN SAT
Catalog number: 25520
Epoch time:      103055.55834812
Element set:     641 
Inclination:       28.4634 deg
RA of node:       183.9707 deg
Eccentricity:    0.0005441
Arg of perigee:    55.518Mean anomaly:     304.5864 deg
Mean motion:   15.13912763 rev/day
Decay rate:    1.9709E-005 rev/day^2
Epoch rev:           23849
Checksum:              424

Satellite: ISS (ZARYA)
Catalog number: 25544
Epoch time:      103055.48490583
Element set:     723 
Inclination:       51.6343 deg
RA of node:       226.2914 deg
Eccentricity:    0.0011914
Arg of perigee:   240.7333 deg
Mean anomaly:     215.6510 deg
Mean motion:   15.58715118 rev/day
Decay rate:    1.6034E-004 rev/day^2
Epoch rev:           24342
Checksum:              275

